Погода в Багане

Россия / Самарская область     54°21′19″N   51°24′20″E
В апреле 2022 года жителям России запретили посещать сайт meteo.paraplan.net по решению Генеральной прокуратуры. Аудитория сайта уменьшилась в 10 раз. Владельцы сайта не видят смысла в поддержке погодного сервера в таких условиях. Сайт будет закрыт в октябре.
темп.,
°C
ветер,
м/с
пор.,
м/с
влажн.,
%
обл.,
%
осадки,
мм/ч
давл.,
гПа
погр.,
м
25 сентября, вс
вс2501:00+11зюз2477100 0.0 101189
04:00+11ююз1174100 0.0 101111
07:00+11зсз1175100 0.1 100960
10:00+10зсз2389100 3.3 1008240
13:00+10сз4690100 4.1 1006435
16:00+9зсз5992100 6.4 1004540
19:00+9з4888100 1.2 1004561
22:00+9юз2587100 1.3 1005192
26 сентября, пн
пн2601:00+8ю4108890 0.1 1005292
04:00+7ю369574 0.2 1006165
07:00+8юз379294 0.2 1006335
10:00+9юз468298 0.3 1008608
13:00+8юз3586100 1.1 1009451
16:00+8ююз3585100 1.8 1010452
19:00+8ююз249186 0.1 1011205
22:00+7юз2590100 0.3 1012192
27 сентября, вт
вт2701:00+7юз238895 0.1 1013113
04:00+7юз228966 0.1 101448
07:00+7зюз118995 0.0 101550
10:00+9з1178100 0.1 1016325
13:00+11зсз2268100 0.2 1017720
16:00+12ссз22615 0.2 1017927
19:00+8всв117715 0.0 101810
22:00+6в22897 0.0 101936
28 сентября, ср
ср2801:00+6в118947 0.0 101913
04:00+7вюв1283100 0.0 101949
07:00+7в2395100 3.1 1019143
10:00+7вюв4894100 5.6 1019382
13:00+7вюв5891100 0.6 1019468
16:00+7вюв5992100 1.1 1019496
19:00+7в61292100 0.9 1019560
22:00+7вюв71292100 2.8 1019576
29 сентября, чт
чт2901:00+6в81392100 2.6 1018430
04:00+5в71392100 3.3 1017425
07:00+6в71493100 0.4 1017474
10:00+7в81289100 0.4 1017513
13:00+7вюв81385100 0.0 1018564
16:00+5вюв81490100 1.4 1019505
19:00+4вюв81591100 1.5 1021489
22:00+4вюв71490100 2.1 1023530